Location: Newark
(35.2672°N, 80.7344°W)
Time: 01:38:49
(UTC+00:00)

Transit 2A Rocket - Pass Details

Date: 27 January 2020
Orbit: 591 x 912 km, 66.7° (Epoch: 25 February)

Event Time Altitude Azimuth Distance (km) Brightness Sun altitude
Rises 11:04:00 0° 252° (WSW) 2,834 - -16.9°
Reaches altitude 10° 11:07:18 10° 279° (W) 1,920 - -16.2°
Maximum altitude 11:09:28 14° 310° (NW) 1,697 - -15.8°
Exits shadow 11:11:20 11° 337° (NNW) 1,870 6.7 -15.4°
Drops below altitude 10° 11:11:39 10° 341° (NNW) 1,931 6.8 -15.3°
Sets 11:15:00 0° 8° (N) 2,861 7.9 -14.6°
